Miscellaneous Local Product
Issued by NWS Hastings, NE

Home | Current Version | Previous Version | Text Only | Print | Product List | Glossary Off
Versions: 1 2 3 4 5 6 7 8 9 10 11 12 13 14 15 16 17 18 19 20 21 22 23 24 25 26 27 28 29 30 31 32 33 34 35 36 37 38 39 40 41 42 43 44 45 46 47 48 49 50

000
AXUS43 KGID 180702
MISGRI

GID CWA HOURLY WEATHER ROUNDUP
NATIONAL WEATHER SERVICE HASTINGS NE
200 AM CDT FRI APR 18 2014

NOTE: "FAIR" INDICATES FEW OR NO CLOUDS BELOW 12,000 FEET WITH NO
SIGNIFICANT WEATHER AND/OR OBSTRUCTIONS TO VISIBILITY.

...SOUTH CENTRAL NEBRASKA...

CITY           SKY/WX    TMP DP  RH WIND       PRES   REMARKS
GRAND ISLAND   CLEAR     40  28  62 S9        30.21S WCI  34
HASTINGS       CLEAR     40  27  59 S7        30.20S
KEARNEY        CLEAR     39  28  65 S13       30.19S WCI  32
ORD            CLEAR     40  28  62 SE7       30.17F
YORK           PTCLDY    37  27  65 SE7       30.22F WCI  32
AURORA         CLEAR     39  29  67 S7        30.21F WCI  34
LEXINGTON      CLEAR     41  32  70 SE8       30.17S
HOLDREGE       CLEAR     40  29  66 S10       30.18F WCI  33
HEBRON         CLEAR     38  29  68 S6        30.24S WCI  34

...NEBRASKA PANHANDLE...

CITY           SKY/WX    TMP DP  RH WIND       PRES   REMARKS
CHADRON        CLEAR     48  38  68 S12G20    29.88F
ALLIANCE       CLEAR     42  37  82 S14       29.96S
SCOTTSBLUFF    CLEAR     50  37  61 S12G20    29.94F
SIDNEY         CLEAR     42  35  76 S16       30.02S

...WESTERN AND NORTH CENTRAL NEBRASKA...

CITY           SKY/WX    TMP DP  RH WIND       PRES   REMARKS
VALENTINE      PTCLDY    43  31  62 S17G25    30.05F
AINSWORTH      PTCLDY    41  29  62 S15G22    30.09F
ONEILL         CLEAR     38  23  54 SE7       30.17F WCI  32
BROKEN BOW     CLEAR     39  29  67 S10       30.15F WCI  32
IMPERIAL       CLEAR     41  37  86 S14       30.09F
NORTH PLATTE   CLEAR     43  35  73 S10       30.12S
MCCOOK         CLEAR     41  37  86 S10       30.15F

...EASTERN NEBRASKA...

CITY           SKY/WX    TMP DP  RH WIND       PRES   REMARKS
NORFOLK        CLEAR     36  24  62 CALM      30.22S
SO SIOUX CITY  PTCLDY    32  25  75 E7        30.26S WCI  26
TEKAMAH        CLEAR     31  22  69 CALM      30.26F
COLUMBUS       CLEAR     37  25  60 CALM      30.23F
ALBION         CLEAR     33  24  69 CALM      30.21S
OMAHA EPPLEY   PTCLDY    36  30  79 CALM      30.26F
OFFUTT AFB     CLEAR     28  28  99 CALM      30.26S
MILLARD        CLEAR     37  27  69 CALM      30.26S
LINCOLN        CLEAR     38  25  59 S3        30.26F
NEBRASKA CITY  CLEAR     40  27  59 S5        30.26F
BEATRICE       PTCLDY    39  29  67 S6        30.26S WCI  34
FALLS CITY     CLEAR     36  29  75 CALM      30.27S

...NORTHERN KANSAS...

CITY           SKY/WX    TMP DP  RH WIND       PRES   REMARKS
GOODLAND       CLEAR     39  36  89 S17       30.13F WCI  30
HILL CITY      CLEAR     41  36  82 S7        30.20F
PHILLIPSBURG   CLEAR     37  28  70 S6        30.20F WCI  33
SMITH CENTER   CLEAR     36  27  69 SE10      30.22F WCI  28
BELOIT         CLEAR     37  28  70 SE5       30.24F WCI  34
HAYS           CLEAR     37  30  75 S6        30.23R WCI  33
RUSSELL        CLEAR     39  31  72 S10       30.22S WCI  32
CONCORDIA      CLEAR     41  31  67 S14       30.24F
SALINA         CLEAR     34  28  79 S3        30.27S
TOPEKA         CLEAR     38  32  79 CALM      30.29S HAZE



USA.gov is the U.S. government's official web portal to all federal, state and local government web resources and services.